Flag for U.S.A. Weather past 2 weeks in Oceanside, California, U.S.A.

Now
56 °F

Clear.


Feels Like: 55 °F
Forecast: 54 / 66 °F
Wind: 5 mph from Northeast

Location: Oceanside Weather Reporting Station

Current Time: Jan 29, 2015 at 5:05:14 AM

Latest Report: Jan 29, 2015 at 3:52 AM


Visibility: 10 mi

Pressure: 30.00 "Hg

Humidity: 72%

Dew point: 47 °F

Location of OceansideLocation

Historic Weather in Oceanside — Graph

°F

Oceanside temperature yesterday

Maximum temperature yesterday: 71 °F (at 10:52 AM)
Minimum temperature yesterday: 46 °F (at 3:52 AM)
Average temperature yesterday: 58 °F

Past Weeks' High & Low Weather Summary

 TemperatureHumidityPressure
High81 °F (Jan 24, 12:52 PM)97% (Jan 19, 3:52 AM)30.24 "Hg (Jan 19, 3:52 AM)
Low39 °F (Jan 19, 4:52 AM)13% (Jan 24, 1:52 PM)29.92 "Hg (Jan 20, 3:52 PM)
Average55 °F66%30.09 "Hg
* Reported Jan 14 3:52 AM — Jan 29 3:52 AM, Oceanside, Weather by CustomWeather, © 2014

Note: Actual official high and low records may vary slightly from our data, if they occured in-between our weather recording intervals... More about our weather records

Advertising

Oceanside weather history for previous 24 hours

 ConditionsComfort  
Time TempWeatherWind HumidityBarometerVisibility
3:52 AM
Jan 29
56 °FClear.5 mph72%30.00 "Hg10 mi
2:52 AM57 °FClear.6 mph72%30.01 "Hg10 mi
1:52 AM57 °FClear.No wind74%30.02 "Hg10 mi
12:52 AM58 °FClear.No wind75%30.03 "Hg10 mi
11:52 PM
Jan 28
56 °FClear.3 mph87%30.05 "Hg10 mi
10:52 PM58 °FClear.No wind81%30.06 "Hg10 mi
9:52 PM57 °FClear.No wind83%30.06 "Hg10 mi
8:52 PM57 °FClear.No wind83%30.06 "Hg10 mi
7:52 PM57 °FClear.No wind83%30.06 "Hg9 mi
6:52 PM60 °FClear.No wind80%30.06 "Hg9 mi
5:52 PM63 °FClear.No wind73%30.05 "Hg9 mi
4:52 PM65 °FSunny.6 mph70%30.06 "Hg6 mi
3:52 PM69 °FSunny.No wind51%30.03 "Hg10 mi
2:52 PM67 °FSunny.6 mph57%30.05 "Hg10 mi
1:52 PM65 °FSunny.6 mph68%30.05 "Hg10 mi
12:52 PM68 °FSunny.12 mph61%30.04 "Hg10 mi
11:52 AM70 °FSunny.8 mph59%30.06 "Hg10 mi
10:52 AM71 °FSunny.3 mph47%30.10 "Hg10 mi
9:52 AM65 °FSunny.5 mph56%30.11 "Hg10 mi
8:52 AM58 °FSunny.8 mph70%30.12 "Hg10 mi
7:52 AM53 °FSunny.5 mph77%30.13 "Hg10 mi
6:52 AM50 °FSunny.6 mph83%30.11 "Hg10 mi
5:52 AM49 °FClear.7 mph86%30.12 "Hg10 mi
Weather by CustomWeather, © 2014

See weather overviewHow to use our weather pages